Current weather by "City, St" or "zip code"  
 
Advertise Here

Current Conditions: Redstone Airfield, AL

Fair


64.0 F

Last Updated on May 12 2021, 11:58 am CDT
Humidity: 60%
Wind Speed: E 10.4 mph
Barometer 30.18 in
Dewpoint: 50.2 F
Visibility: 10.00 mi
Precip: --
Heat Index: NA
Wind Chill: NA
Current conditions at:

Redstone Airfield, AL (KHUA)

Lat: 34.6786 Lon: 86.6847

Local Radar Image active severe weather and emergency alerts image image weather storm and storm spotter reports image weather observation monitoring service image
Local
Radar
Active
Alerts
Storm Reports Obs
Monitoring

Sign-up For Email & Text Message Weather Alert Notification Services


Advertise Here

Observation History for Redstone Airfield, AL


Time Wind
(mph)
Vis
(mi)
Weather Precip (in) Temperature (F) Relative
Humidity
Wind
Chill
(F)
Heat
Index
(F)
Pressure
Air Dwpt altimeter
(in)
sea level
(mb)
Rmks
11:58 am CDT E 10.4 10.00 Fair -- 64.0 50.2 60% NA NA 30.18 1021.8
10:58 am CDT E 11.5 10.00 Overcast -- 61.0 50.2 67% 59 NA 30.16 1021.2
9:58 am CDT NE 9.2 10.00 Overcast -- 60.0 50.5 70% 59 NA 30.17 1021.5
8:58 am CDT NE 13.8 G 19.6 10.00 Overcast -- 57.0 48.7 74% 54 NA 30.16 1021.2
7:58 am CDT NE 12.7 9.00 Overcast -- 55.0 48.4 79% 52 NA 30.16 1021.2
6:58 am CDT NE 9.2 G 18.4 10.00 Overcast -- 54.0 49.1 83% 51 NA 30.14 1020.6
5:58 am CDT NE 5.8 10.00 Overcast -- 54.0 50.2 87% 53 NA 30.14 1020.5
4:58 am CDT NE 12.7 10.00 Overcast -- 54.0 50.9 89% 50 NA 30.12 1019.8
3:58 am CDT N 10.4 10.00 Overcast 00.01 54.0 52.0 92% 51 NA 30.13 1020.2
2:58 am CDT E 9.2 8.00 Light Rain 00.04 55.0 51.1 88% 52 NA 30.07 1018.1
1:58 am CDT NE 6.9 8.00 Light Rain -- 56.0 51.4 84% 54 NA 30.09 1018.8
12:58 am CDT NE 8.1 8.00 Light Rain Trace 62.0 48.4 62% 61 NA 30.09 1018.8
11:58 pm CDT NE 8.1 10.00 Overcast -- 63.0 47.5 58% 63 NA 30.10 1019.1
10:58 pm CDT NE 10.4 10.00 Overcast -- 63.0 49.8 62% 62 NA 30.12 1019.8
9:58 pm CDT NE 4.6 10.00 Overcast -- 63.0 52.5 68% 64 NA 30.13 1020.2
8:58 pm CDT NE 4.6 10.00 Overcast -- 64.0 52.7 68% NA NA 30.10 1019.2
7:58 pm CDT E 6.9 10.00 Mostly Cloudy -- 64.0 50.0 61% NA NA 30.07 1018.2
6:58 pm CDT NE 5.8 10.00 Overcast -- 65.0 48.7 56% NA NA 30.04 1017.2
5:58 pm CDT NE 11.5 9.00 Overcast -- 66.0 49.5 55% NA NA 30.05 1017.5
4:58 pm CDT NE 8.1 7.00 Overcast -- 68.0 53.6 61% NA NA 30.08 1018.5
3:58 pm CDT N 0.0 9.00 Mostly Cloudy -- 69.0 55.4 63% NA NA 30.09 1018.8
2:58 pm CDT SE 4.6 10.00 Mostly Cloudy -- 69.0 56.3 64% NA NA 30.09 1018.8
1:58 pm CDT SW 3.5 10.00 Mostly Cloudy -- 67.0 56.3 69% NA NA 30.10 1019.2
12:58 pm CDT N 0.0 10.00 Partly Cloudy -- 65.0 54.0 68% NA NA 30.11 1019.6

Regional Weather Observation


Huntsville, Madison County Executive Airport, AL (KMDQ)

Fair
65.0 F

Huntsville, Huntsville International / Jones Field, AL (KHSV)

A Few Clouds
66.0 F

Redstone Airfield, AL (KHUA)

Fair
64.0 F

Fayetteville Municipal Airport, TN (KFYM)

Fair
64.0 F

Pulaski Abernathy Field Airport, TN (KGZS)

Fair
66.0 F

Cullman Regional Folsom Field, AL (KCMD)

Mostly Cloudy
64.0 F
Advertise Here

Advertise Here